• In Russia
  • List of Countries
  • For 7 days
  • Water Temperature
  • Satellite Maps
  • Weather Map
  • Weather Widgets
  • user-avatar
    Login

    Hourly Weather Newcastle

    Today, 29 April, Saturday

    Time Temperature Precipitation Wind Pressure Humidity
    00:00 +9°C° 0 mm 2 mps 764 mmHg 83%
    01:00 +9°C° 0 mm 2 mps 764 mmHg 79%
    02:00 +9°C° 0 mm 2 mps 764 mmHg 75%
    03:00 +9°C° 0 mm 2 mps 764 mmHg 72%
    04:00 +9°C° 0 mm 2 mps 763 mmHg 68%
    05:00 +10°C° 0 mm 3 mps 764 mmHg 66%
    06:00 +10°C° 0 mm 3 mps 764 mmHg 65%
    07:00 +10°C° 0 mm 3 mps 764 mmHg 64%
    08:00 +13°C° 0 mm 3 mps 764 mmHg 56%
    09:00 +17°C° 0 mm 2 mps 764 mmHg 48%
    10:00 +19°C° 0 mm 2 mps 764 mmHg 40%
    11:00 +21°C° 0 mm 2 mps 764 mmHg 37%
    12:00 +23°C° 0 mm 2 mps 763 mmHg 34%
    13:00 +25°C° 0 mm 2 mps 763 mmHg 30%
    14:00 +24°C° 0 mm 2 mps 762 mmHg 34%
    15:00 +24°C° 0 mm 2 mps 762 mmHg 39%
    16:00 +23°C° 0 mm 2 mps 762 mmHg 43%
    17:00 +19°C° 0 mm 2 mps 763 mmHg 53%
    18:00 +16°C° 0 mm 2 mps 763 mmHg 62%
    19:00 +12°C° 0 mm 3 mps 764 mmHg 72%
    20:00 +11°C° 0 mm 3 mps 764 mmHg 75%
    21:00 +11°C° 0 mm 3 mps 764 mmHg 79%
    22:00 +11°C° 0 mm 3 mps 764 mmHg 82%
    23:00 +11°C° 0 mm 3 mps 764 mmHg 82%

    Tomorrow, 30 April, Sunday

    Time Temperature Precipitation Wind Pressure Humidity
    00:00 +12°C° 0 mm 3 mps 764 mmHg 82%
    01:00 +12°C° 0 mm 3 mps 764 mmHg 82%
    02:00 +12°C° 0.2 mm 3 mps 764 mmHg 82%
    03:00 +12°C° 0.2 mm 3 mps 764 mmHg 83%
    04:00 +13°C° 0.2 mm 4 mps 764 mmHg 83%
    05:00 +13°C° 0.1 mm 4 mps 765 mmHg 83%
    06:00 +13°C° 0.1 mm 4 mps 765 mmHg 84%
    07:00 +13°C° 0.1 mm 4 mps 765 mmHg 84%
    08:00 +15°C° 0 mm 4 mps 765 mmHg 78%
    09:00 +18°C° 0 mm 4 mps 766 mmHg 71%
    10:00 +20°C° 0 mm 4 mps 766 mmHg 64%
    11:00 +21°C° 0.2 mm 3 mps 765 mmHg 64%
    12:00 +21°C° 0.2 mm 3 mps 765 mmHg 63%
    13:00 +22°C° 0.2 mm 3 mps 764 mmHg 62%
    14:00 +21°C° 0.1 mm 3 mps 764 mmHg 67%
    15:00 +21°C° 0.1 mm 2 mps 764 mmHg 72%
    16:00 +20°C° 0.1 mm 2 mps 764 mmHg 76%
    17:00 +17°C° 0 mm 2 mps 764 mmHg 84%
    18:00 +15°C° 0 mm 1 mps 764 mmHg 91%
    19:00 +12°C° 0 mm 1 mps 765 mmHg 98%
    20:00 +12°C° 0 mm 1 mps 765 mmHg 98%
    21:00 +10°C° 0 mm 0 mps 765 mmHg 98%
    22:00 +10°C° 0 mm 0 mps 766 mmHg 98%
    23:00 +10°C° 0 mm 0 mps 765 mmHg 98%

    Day after tomorrow, 1 May, Monday

    Time Temperature Precipitation Wind Pressure Humidity
    00:00 +10°C° 0 mm 0 mps 765 mmHg 98%
    01:00 +11°C° 0 mm 0 mps 765 mmHg 98%
    02:00 +12°C° 0 mm 1 mps 764 mmHg 98%
    03:00 +12°C° 0 mm 1 mps 764 mmHg 98%
    04:00 +12°C° 0 mm 1 mps 764 mmHg 98%
    05:00 +13°C° 0 mm 1 mps 764 mmHg 98%
    06:00 +13°C° 0 mm 2 mps 765 mmHg 98%
    07:00 +13°C° 0 mm 2 mps 765 mmHg 98%
    08:00 +16°C° 0 mm 2 mps 765 mmHg 87%
    09:00 +18°C° 0 mm 2 mps 765 mmHg 75%
    10:00 +21°C° 0 mm 2 mps 764 mmHg 64%
    11:00 +23°C° 0 mm 2 mps 764 mmHg 58%
    12:00 +25°C° 0 mm 2 mps 763 mmHg 51%
    13:00 +26°C° 0 mm 3 mps 762 mmHg 45%
    14:00 +26°C° 0 mm 3 mps 762 mmHg 48%
    15:00 +25°C° 0 mm 3 mps 762 mmHg 50%
    16:00 +25°C° 0 mm 3 mps 761 mmHg 53%
    17:00 +22°C° 0 mm 3 mps 762 mmHg 63%
    18:00 +19°C° 0 mm 4 mps 762 mmHg 72%
    19:00 +17°C° 0 mm 4 mps 762 mmHg 82%
    20:00 +17°C° 0 mm 4 mps 762 mmHg 83%
    21:00 +17°C° 0 mm 4 mps 763 mmHg 84%
    22:00 +17°C° 0 mm 4 mps 763 mmHg 85%
    23:00 +15°C° 0 mm 4 mps 762 mmHg 83%

    2 May, Tuesday

    Time Temperature Precipitation Wind Pressure Humidity
    00:00 +16°C° 0 mm 3 mps 762 mmHg 81%
    01:00 +14°C° 0 mm 3 mps 762 mmHg 80%
    02:00 +14°C° 0 mm 3 mps 762 mmHg 79%
    03:00 +14°C° 0 mm 3 mps 762 mmHg 77%
    04:00 +14°C° 0 mm 3 mps 761 mmHg 76%
    05:00 +13°C° 0 mm 3 mps 762 mmHg 76%
    06:00 +13°C° 0 mm 3 mps 762 mmHg 76%
    07:00 +13°C° 0 mm 3 mps 762 mmHg 76%
    08:00 +17°C° 0 mm 3 mps 762 mmHg 66%
    09:00 +19°C° 0 mm 2 mps 762 mmHg 56%
    10:00 +23°C° 0 mm 2 mps 762 mmHg 46%
    11:00 +24°C° 0 mm 2 mps 762 mmHg 42%
    12:00 +25°C° 0 mm 2 mps 761 mmHg 38%
    13:00 +27°C° 0 mm 2 mps 761 mmHg 34%
    14:00 +26°C° 0 mm 2 mps 761 mmHg 39%
    15:00 +25°C° 0 mm 2 mps 761 mmHg 44%
    16:00 +25°C° 0 mm 2 mps 761 mmHg 49%
    17:00 +23°C° 0 mm 2 mps 761 mmHg 56%
    18:00 +20°C° 0 mm 2 mps 762 mmHg 62%
    19:00 +18°C° 0 mm 3 mps 762 mmHg 69%
    20:00 +17°C° 0.1 mm 2 mps 763 mmHg 75%
    21:00 +16°C° 0.1 mm 2 mps 763 mmHg 80%
    22:00 +15°C° 0.1 mm 2 mps 763 mmHg 86%
    23:00 +15°C° 0.4 mm 2 mps 763 mmHg 89%

    3 May, Wednesday

    Time Temperature Precipitation Wind Pressure Humidity
    00:00 +14°C° 0.4 mm 2 mps 763 mmHg 92%
    01:00 +13°C° 0.4 mm 3 mps 763 mmHg 95%
    02:00 +13°C° 0.4 mm 3 mps 764 mmHg 95%
    03:00 +13°C° 0.4 mm 3 mps 764 mmHg 95%
    04:00 +13°C° 0.4 mm 3 mps 764 mmHg 96%
    05:00 +14°C° 0.4 mm 4 mps 765 mmHg 95%
    06:00 +14°C° 0.4 mm 4 mps 765 mmHg 95%
    07:00 +14°C° 0.4 mm 4 mps 766 mmHg 95%
    08:00 +15°C° 0.5 mm 4 mps 766 mmHg 90%
    09:00 +17°C° 0.5 mm 4 mps 766 mmHg 86%
    10:00 +18°C° 0.5 mm 4 mps 767 mmHg 81%
    11:00 +18°C° 0.9 mm 4 mps 767 mmHg 81%
    12:00 +19°C° 0.9 mm 4 mps 766 mmHg 82%
    13:00 +19°C° 0.9 mm 4 mps 766 mmHg 82%
    14:00 +18°C° 0.6 mm 4 mps 766 mmHg 84%
    15:00 +18°C° 0.6 mm 4 mps 767 mmHg 86%
    16:00 +17°C° 0.6 mm 4 mps 767 mmHg 88%
    17:00 +15°C° 0.3 mm 4 mps 768 mmHg 91%
    18:00 +14°C° 0.3 mm 4 mps 768 mmHg 93%
    19:00 +13°C° 0.3 mm 4 mps 769 mmHg 95%
    20:00 +13°C° 0.3 mm 4 mps 769 mmHg 96%
    21:00 +13°C° 0.3 mm 3 mps 770 mmHg 96%
    22:00 +13°C° 0.3 mm 3 mps 770 mmHg 96%
    23:00 +13°C° 0.3 mm 3 mps 770 mmHg 96%

    4 May, Thursday

    Time Temperature Precipitation Wind Pressure Humidity
    00:00 +12°C° 0.3 mm 3 mps 770 mmHg 97%
    01:00 +12°C° 0.3 mm 3 mps 770 mmHg 97%
    02:00 +12°C° 0.2 mm 3 mps 770 mmHg 97%
    03:00 +12°C° 0.2 mm 3 mps 770 mmHg 97%
    04:00 +12°C° 0.2 mm 3 mps 770 mmHg 96%
    05:00 +12°C° 0.2 mm 3 mps 770 mmHg 96%
    06:00 +13°C° 0.2 mm 3 mps 771 mmHg 96%
    07:00 +13°C° 0.2 mm 3 mps 771 mmHg 96%
    08:00 +14°C° 0.3 mm 3 mps 771 mmHg 93%
    09:00 +16°C° 0.3 mm 3 mps 772 mmHg 90%
    10:00 +17°C° 0.3 mm 3 mps 772 mmHg 87%
    11:00 +18°C° 0.3 mm 3 mps 771 mmHg 83%
    12:00 +18°C° 0.3 mm 3 mps 771 mmHg 80%
    13:00 +19°C° 0.3 mm 3 mps 770 mmHg 77%
    14:00 +19°C° 0.2 mm 3 mps 770 mmHg 79%
    15:00 +18°C° 0.2 mm 3 mps 770 mmHg 80%
    16:00 +18°C° 0.2 mm 3 mps 770 mmHg 81%
    17:00 +16°C° 0.2 mm 3 mps 771 mmHg 86%
    18:00 +14°C° 0.2 mm 3 mps 771 mmHg 91%
    19:00 +12°C° 0.2 mm 3 mps 772 mmHg 96%
    20:00 +12°C° 0.2 mm 3 mps 772 mmHg 95%
    21:00 +12°C° 0.2 mm 3 mps 772 mmHg 95%
    22:00 +12°C° 0.2 mm 3 mps 772 mmHg 94%
    23:00 +12°C° 0.1 mm 3 mps 772 mmHg 95%
    Show more